Weather History for Morgantown, WV

Change the Weather History Date:

Tuesday, June 26, 2012

  Actual Average Record
Temperature  
Mean Temperature 64 °F 72 °F  
Max Temperature 79 °F 83 °F 96 °F (1952)
Min Temperature 48 °F 61 °F 47 °F (1986)
Degree Days  
Heating Degree Days 1 0  
Month to date heating degree days 19 29  
Since 1 June heating degree days 19 29  
Since 1 July heating degree days 4145 5182  
Cooling Degree Days 0 7  
Month to date cooling degree days 138 131  
Year to date cooling degree days 315 198  
Since 1 June cooling degree days 138 131  
Growing Degree Days 13 (Base 50)    
Moisture  
Dew Point 45 °F    
Average Humidity 57    
Maximum Humidity 86    
Minimum Humidity 28    
Precipitation  
Precipitation 0.00 in 0.14 in 1.94 in (1978)
Month to date precipitation 1.01 3.53  
Year to date precipitation 13.71 20.72  
Sea Level Pressure  
Sea Level Pressure 29.97 in    
Wind  
Wind Speed 4 mph (NNW)    
Max Wind Speed 16 mph    
Max Gust Speed 25 mph    
Visibility 10 miles    
Events      
T = Trace of Precipitation, MM = Missing Value Source: NWS Daily Summary

Daily Weather History Graph

Daily Weather History Graph

Search for Another Location

Airport:

Trip Planner

Search our weather history database for the weather conditions in past years. The results will help you decide how hot, cold, wet, or windy it might be!

Date:

Astronomy

Jun. 26, 2012 Rise Set
Actual Time 5:53 AM EDT 8:51 PM EDT
Civil Twilight 5:21 AM EDT 9:23 PM EDT
Nautical Twilight 4:39 AM EDT 10:05 PM EDT
Astronomical Twilight 3:52 AM EDT 10:52 PM EDT
Moon 1:06 PM EDT (6/26) 12:20 AM EDT (6/26)
Length of Visible Light 16h 02m
Length of Day
14h 57m
Waxing Crescent, 45% of the Moon is Illuminated
Jun 26
Waxing Crescent
Jun 26
First Quarter
Jul 3
Full
Jul 10
Last Quarter
Jul 19
New

Hourly Weather History & Observations

Time (EDT) Temp. Dew Point Humidity Pressure Visibility Wind Dir Wind Speed Gust Speed Precip Events Conditions
12:53 AM 55.9 °F 44.1 °F 64% 29.97 in 10.0 mi Calm Calm - N/A   Clear
1:53 AM 53.1 °F 45.0 °F 74% 29.97 in 10.0 mi Calm Calm - N/A   Clear
2:53 AM 51.1 °F 45.0 °F 80% 29.96 in 10.0 mi Calm Calm - N/A   Clear
3:53 AM 51.1 °F 45.0 °F 80% 29.97 in 10.0 mi Calm Calm - N/A   Clear
4:53 AM 50.0 °F 45.0 °F 83% 29.96 in 10.0 mi Calm Calm - N/A   Clear
5:53 AM 48.0 °F 45.0 °F 89% 29.99 in 10.0 mi Calm Calm - N/A   Clear
6:53 AM 51.1 °F 46.0 °F 83% 30.00 in 10.0 mi Calm Calm - N/A   Clear
7:53 AM 55.0 °F 48.9 °F 80% 30.02 in 10.0 mi Calm Calm - N/A   Clear
8:53 AM 61.0 °F 50.0 °F 67% 30.02 in 10.0 mi Variable 3.5 mph - N/A   Partly Cloudy
9:53 AM 66.0 °F 50.0 °F 56% 30.02 in 10.0 mi North 9.2 mph - N/A   Partly Cloudy
10:53 AM 69.1 °F 46.0 °F 44% 30.01 in 10.0 mi North 8.1 mph - N/A   Partly Cloudy
11:53 AM 69.1 °F 46.0 °F 44% 29.99 in 10.0 mi Variable 5.8 mph - N/A   Mostly Cloudy
12:53 PM 72.0 °F 44.1 °F 37% 29.98 in 10.0 mi NNW 10.4 mph - N/A   Mostly Cloudy
1:53 PM 73.0 °F 45.0 °F 37% 29.96 in 10.0 mi NNW 12.7 mph 21.9 mph N/A   Mostly Cloudy
2:53 PM 75.9 °F 44.1 °F 32% 29.94 in 10.0 mi NNW 8.1 mph - N/A   Scattered Clouds
3:53 PM 75.0 °F 44.1 °F 33% 29.92 in 10.0 mi Variable 6.9 mph - N/A   Mostly Cloudy
4:53 PM 75.9 °F 43.0 °F 31% 29.92 in 10.0 mi NW 9.2 mph - N/A   Scattered Clouds
5:53 PM 78.1 °F 42.1 °F 28% 29.92 in 10.0 mi NNW 10.4 mph 20.7 mph N/A   Mostly Cloudy
6:53 PM 73.9 °F 42.1 °F 32% 29.93 in 10.0 mi NW 10.4 mph 16.1 mph N/A   Clear
7:53 PM 73.0 °F 43.0 °F 34% 29.93 in 10.0 mi Variable 4.6 mph - N/A   Clear
8:53 PM 70.0 °F 44.1 °F 39% 29.93 in 10.0 mi Variable 3.5 mph - N/A   Clear
9:53 PM 66.9 °F 45.0 °F 45% 29.95 in 10.0 mi Calm Calm - N/A   Clear
10:53 PM 66.9 °F 44.1 °F 44% 29.95 in 10.0 mi Calm Calm - N/A   Clear
11:53 PM 57.9 °F 48.0 °F 70% 29.96 in 10.0 mi Calm Calm - N/A   Clear